Find USA 81

NORAD ID: 21949 Int'l Des: 1992-023 Owner: NRO Country: US operational
LEOCIRCULARPOLAR

現在のビュー

3D地球を読み込み中...

USA 81について

説明を読み込み中...

次回通過

Passes for default location (London). Set your location on the main map for personalized predictions.

高度履歴

Loading altitude history...

軌道要素

1 21949U 92023A 26149.76290923 .00000190 00000-0 63106-4 0 9991
2 21949 85.0074 84.6397 0002563 100.8927 259.2554 14.32392311106391
Epoch: May 29, 2026 • Age: 18 hours

現在のステータス

高度 799.0 km
速度 7.45 km/s
衛星直下点 -37.63°S, 161.28°W
打ち上げ日 Apr 25, 1992
運用期間 34 years
タイプ military

技術仕様

分類 Payload
質量 1450.00 kg
乾燥質量 1200.00 kg
総質量 1450.00 kg
長さ 0.50 m
直径 1.00 m
スパン 10.00 m
形状 Cyl + Ant
製造者 LMSC/MOTO
バスタイプ NRO-T2
フェーズステータス In Orbit
所有者/国 NRO/US

Most Searched